QPF
0.00 0.00 0.00 0.00 0.00 0.00 0.00 0.00 0.00 0.00 0.00 0.00 0.00 0.00 0.00 0.00 0.00 0.00 0.00 0.00 0.00 0.00 0.00 0.00 0.00 0.00 0.00 0.00 0.00 0.00 0.00 0.00 0.00 0.01 0.00 0.00 0.00 0.01 0.02 0.04 0.05 0.05 0.06 0.03
0.00 0.00 0.00 0.00 0.00 0.00 0.00 0.00 0.00 0.00 0.00 0.00 0.00 0.00 0.00 0.00 0.00 0.00 0.00 0.00 0.00 0.00 0.00 0.00 0.00 0.00 0.00 0.00 0.00 0.00 0.00 0.00 0.00 0.01 0.00 0.00 0.00 0.02 0.04 0.05 0.05 0.05 0.03 0.02
0.00 0.00 0.00 0.00 0.00 0.00 0.00 0.00 0.00 0.00 0.00 0.00 0.00 0.00 0.00 0.00 0.00 0.00 0.00 0.00 0.00 0.00 0.00 0.00 0.00 0.01 0.01 0.01 0.00 0.00 0.00 0.00 0.02 0.01 0.02 0.01 0.00 0.00 0.02 0.07 0.06 0.03 0.00 0.00
0.00 0.00 0.00 0.00 0.00 0.00 0.00 0.00 0.00 0.00 0.00 0.00 0.00 0.00 0.00 0.00 0.00 0.00 0.00 0.00 0.00 0.00 0.00 0.00 0.00 0.01 0.02 0.04 0.03 0.02 0.01 0.01 0.02 0.02 0.06 0.01 0.01 0.01 0.00 0.02 0.02 0.01 0.00 0.00
0.00 0.00 0.00 0.00 0.00 0.00 0.00 0.00 0.00 0.00 0.00 0.00 0.00 0.00 0.00 0.00 0.00 0.00 0.00 0.00 0.00 0.00 0.00 0.00 0.00 0.00 0.01 0.05 0.03 0.03 0.02 0.02 0.06 0.06 0.15 0.12 0.10 0.02 0.00 0.01 0.02 0.01 0.00 0.00
0.00 0.00 0.00 0.00 0.00 0.00 0.00 0.00 0.00 0.00 0.00 0.00 0.00 0.00 0.00 0.00 0.00 0.00 0.00 0.00 0.00 0.00 0.00 0.00 0.00 0.01 0.01 0.00 0.02 0.04 0.02 0.02 0.08 0.06 0.05 0.23 0.19 0.04 0.02 0.00 0.01 0.01 0.02 0.02
0.00 0.00 0.00 0.00 0.00 0.00 0.00 0.00 0.00 0.00 0.00 0.00 0.00 0.00 0.00 0.00 0.00 0.00 0.00 0.00 0.00 0.00 0.00 0.00 0.00 0.00 0.00 0.00 0.00 0.01 0.01 0.01 0.03 0.06 0.05 0.03 0.00 0.01 0.03 0.00 0.00 0.00 0.01 0.01
0.00 0.00 0.00 0.00 0.00 0.00 0.00 0.00 0.00 0.00 0.00 0.00 0.00 0.00 0.00 0.00 0.00 0.00 0.00 0.00 0.00 0.00 0.00 0.00 0.00 0.01 0.01 0.00 0.00 0.00 0.00 0.00 0.00 0.00 0.00 0.00 0.02 0.02 0.04 0.02 0.02 0.00 0.00 0.00
0.00 0.00 0.00 0.00 0.00 0.00 0.00 0.00 0.00 0.00 0.00 0.00 0.00 0.00 0.00 0.00 0.00 0.00 0.00 0.00 0.00 0.00 0.00 0.00 0.00 0.00 0.00 0.00 0.00 0.00 0.00 0.00 0.00 0.00 0.00 0.00 0.00 0.01 0.02 0.03 0.03 0.01 0.00 0.00
0.00 0.00 0.00 0.00 0.00 0.00 0.00 0.00 0.00 0.00 0.00 0.00 0.00 0.00 0.00 0.00 0.00 0.00 0.00 0.00 0.00 0.00 0.00 0.00 0.00 0.00 0.00 0.00 0.00 0.00 0.00 0.00 0.00 0.00 0.00 0.00 0.00 0.01 0.02 0.01 0.00 0.00 0.00 0.00
0.00 0.00 0.00 0.00 0.00 0.00 0.00 0.00 0.00 0.00 0.00 0.00 0.00 0.00 0.00 0.00 0.00 0.00 0.00 0.00 0.00 0.00 0.00 0.00 0.00 0.00 0.00 0.00 0.00 0.00 0.00 0.00 0.00 0.00 0.00 0.00 0.00 0.00 0.00 0.00 0.00 0.00 0.00 0.00
0.00 0.00 0.00 0.00 0.00 0.00 0.00 0.00 0.00 0.00 0.00 0.00 0.00 0.00 0.00 0.00 0.00 0.00 0.00 0.00 0.00 0.00 0.00 0.00 0.00 0.00 0.00 0.00 0.00 0.00 0.00 0.00 0.00 0.00 0.00 0.00 0.00 0.00 0.00 0.00 0.00 0.00 0.00 0.00
0.00 0.00 0.00 0.00 0.00 0.00 0.00 0.00 0.00 0.00 0.00 0.00 0.00 0.00 0.00 0.00 0.00 0.00 0.00 0.00 0.00 0.00 0.00 0.00 0.00 0.00 0.00 0.00 0.00 0.00 0.00 0.00 0.00 0.00 0.00 0.00 0.00 0.00 0.00 0.00 0.00 0.00 0.00 0.00
0.00 0.00 0.00 0.00 0.00 0.00 0.00 0.00 0.00 0.00 0.00 0.00 0.00 0.00 0.00 0.00 0.00 0.00 0.00 0.00 0.00 0.00 0.00 0.00 0.00 0.00 0.00 0.00 0.00 0.00 0.00 0.00 0.00 0.00 0.00 0.00 0.00 0.00 0.00 0.00 0.00 0.00 0.00 0.00
0.00 0.00 0.00 0.00 0.00 0.00 0.00 0.00 0.00 0.00 0.00 0.00 0.00 0.00 0.00 0.00 0.00 0.00 0.00 0.00 0.00 0.00 0.00 0.00 0.00 0.00 0.00 0.00 0.00 0.00 0.00 0.00 0.00 0.00 0.00 0.00 0.00 0.00 0.00 0.00 0.00 0.00 0.00 0.00
0.00 0.00 0.00 0.00 0.00 0.00 0.00 0.00 0.00 0.00 0.00 0.00 0.00 0.00 0.00 0.00 0.00 0.00 0.00 0.00 0.00 0.00 0.00 0.00 0.00 0.00 0.00 0.00 0.00 0.00 0.00 0.00 0.00 0.00 0.00 0.00 0.00 0.00 0.00 0.00 0.00 0.00 0.00 0.00
0.00 0.00 0.00 0.00 0.00 0.00 0.00 0.00 0.00 0.00 0.00 0.00 0.00 0.00 0.00 0.00 0.00 0.00 0.00 0.00 0.00 0.00 0.00 0.00 0.00 0.00 0.00 0.00 0.00 0.00 0.00 0.00 0.00 0.00 0.00 0.00 0.00 0.00 0.00 0.00 0.00 0.00 0.00 0.00
0.00 0.00 0.00 0.00 0.00 0.00 0.00 0.00 0.00 0.00 0.00 0.00 0.00 0.00 0.00 0.00 0.00 0.00 0.00 0.00 0.00 0.00 0.00 0.00 0.00 0.00 0.00 0.00 0.00 0.00 0.00 0.00 0.00 0.00 0.00 0.00 0.00 0.00 0.00 0.00 0.00 0.00 0.00 0.00
0.00 0.00 0.00 0.00 0.00 0.00 0.00 0.00 0.00 0.00 0.00 0.00 0.00 0.00 0.00 0.00 0.00 0.00 0.00 0.00 0.00 0.00 0.00 0.00 0.00 0.00 0.00 0.00 0.00 0.00 0.00 0.00 0.00 0.00 0.00 0.00 0.00 0.00 0.00 0.00 0.00 0.00 0.00 0.00
0.00 0.00 0.00 0.00 0.00 0.00 0.00 0.00 0.00 0.00 0.00 0.00 0.00 0.00 0.00 0.00 0.00 0.00 0.00 0.00 0.00 0.00 0.00 0.00 0.00 0.00 0.00 0.00 0.00 0.00 0.00 0.00 0.00 0.00 0.00 0.00 0.00 0.00 0.00 0.00 0.00 0.00 0.00 0.00
0.00 0.00 0.00 0.00 0.00 0.00 0.00 0.00 0.00 0.00 0.00 0.00 0.00 0.00 0.00 0.00 0.00 0.00 0.00 0.00 0.00 0.00 0.00 0.00 0.00 0.00 0.00 0.00 0.00 0.00 0.00 0.00 0.00 0.00 0.00 0.00 0.00 0.00 0.00 0.00 0.00 0.00 0.00 0.00
0.00 0.00 0.00 0.00 0.00 0.00 0.00 0.00 0.00 0.00 0.00 0.00 0.00 0.00 0.00 0.00 0.00 0.00 0.00 0.00 0.00 0.00 0.00 0.00 0.00 0.00 0.00 0.00 0.00 0.00 0.00 0.00 0.00 0.00 0.00 0.00 0.00 0.00 0.00 0.00 0.00 0.00 0.00 0.00
0.00 0.00 0.00 0.00 0.00 0.00 0.00 0.00 0.00 0.00 0.00 0.00 0.00 0.00 0.00 0.00 0.00 0.00 0.00 0.00 0.00 0.00 0.00 0.00 0.00 0.00 0.00 0.00 0.00 0.00 0.00 0.00 0.00 0.00 0.00 0.00 0.00 0.00 0.00 0.00 0.00 0.00 0.00 0.00
0.00 0.00 0.00 0.00 0.00 0.00 0.00 0.00 0.00 0.00 0.00 0.00 0.00 0.00 0.00 0.00 0.00 0.00 0.00 0.00 0.00 0.00 0.00 0.00 0.00 0.00 0.00 0.00 0.00 0.00 0.00 0.00 0.00 0.00 0.00 0.00 0.00 0.00 0.00 0.00 0.00 0.00 0.00 0.00
0.00 0.00 0.00 0.00 0.00 0.00 0.00 0.00 0.00 0.00 0.00 0.00 0.00 0.00 0.00 0.00 0.00 0.00 0.00 0.00 0.00 0.00 0.00 0.00 0.00 0.00 0.00 0.00 0.00 0.00 0.00 0.00 0.00 0.00 0.00 0.00 0.00 0.00 0.00 0.00 0.00 0.00 0.00 0.00
0.00 0.00 0.00 0.00 0.00 0.00 0.00 0.00 0.00 0.00 0.00 0.00 0.00 0.00 0.00 0.00 0.00 0.00 0.00 0.00 0.00 0.00 0.00 0.00 0.00 0.00 0.00 0.00 0.00 0.00 0.00 0.00 0.00 0.00 0.00 0.00 0.00 0.00 0.00 0.00 0.00 0.00 0.00 0.00
MSLP
1008.82 1008.52 1007.48 1006.94 1006.85 1006.72 1006.49 1006.53 1006.13 1005.89 1006.11 1006.89 1006.39 1005.61 1005.16 1005.19 1005.72 1006.39 1006.96 1007.34 1007.77 1008.25 1008.61 1008.92 1009.24 1008.97 1008.48 1008.66 1009.05 1009.24 1009.12 1009.13 1009.16 1010.10 1010.64 1010.75 1011.19 1011.32 1011.94 1012.16 1012.35 1012.71 1013.30 1014.21
1008.12 1007.51 1006.84 1006.56 1006.74 1006.88 1006.98 1006.68 1006.16 1005.87 1006.23 1006.92 1006.02 1005.02 1004.73 1004.87 1005.36 1006.36 1007.12 1007.78 1008.47 1008.87 1009.42 1010.24 1009.88 1009.14 1008.38 1008.29 1008.61 1008.94 1008.74 1008.89 1008.99 1010.11 1010.57 1010.64 1010.97 1011.71 1012.23 1012.59 1012.88 1012.90 1013.56 1013.98
1006.84 1006.06 1006.61 1006.61 1006.95 1007.13 1006.74 1006.62 1006.28 1006.15 1006.34 1006.42 1005.89 1004.41 1003.67 1004.76 1005.90 1007.03 1007.64 1008.21 1008.77 1009.88 1010.60 1010.62 1010.38 1009.95 1009.61 1009.03 1008.50 1008.52 1008.53 1008.66 1009.08 1010.14 1010.76 1011.38 1011.81 1012.36 1012.71 1013.01 1013.17 1013.37 1013.80 1014.36
1006.28 1006.13 1006.38 1006.74 1006.61 1006.82 1006.48 1006.34 1006.69 1006.96 1007.00 1005.89 1006.09 1004.28 1003.32 1004.35 1005.76 1006.90 1007.32 1008.07 1009.09 1010.48 1010.86 1010.78 1010.79 1010.60 1010.32 1009.80 1009.33 1009.05 1008.87 1008.93 1009.72 1010.35 1011.17 1011.47 1011.98 1012.55 1012.95 1013.13 1013.15 1013.67 1014.19 1014.64
1005.25 1005.74 1005.86 1006.33 1006.31 1006.56 1006.68 1007.16 1007.27 1007.41 1007.05 1006.41 1005.52 1005.25 1002.63 1003.74 1004.85 1005.88 1006.99 1008.30 1009.46 1010.51 1011.02 1011.11 1011.20 1011.10 1010.97 1010.50 1010.02 1009.68 1009.62 1009.92 1010.21 1010.69 1011.06 1011.56 1012.40 1012.83 1013.30 1013.57 1013.49 1013.95 1014.64 1015.35
1005.36 1005.88 1005.91 1005.91 1006.37 1006.42 1006.99 1007.56 1007.64 1007.57 1007.25 1005.96 1004.19 1004.64 1002.17 1003.17 1004.10 1005.36 1007.14 1008.24 1009.67 1010.57 1011.07 1011.33 1011.45 1011.36 1011.36 1011.07 1010.70 1010.51 1010.45 1010.49 1010.49 1010.60 1010.84 1011.68 1012.53 1013.04 1013.38 1013.54 1013.59 1014.22 1015.27 1016.00
1005.41 1005.36 1005.99 1006.09 1006.61 1007.16 1007.34 1007.24 1006.96 1006.73 1006.65 1005.02 1004.86 1004.60 1002.92 1003.59 1004.76 1005.64 1006.92 1008.19 1009.66 1010.48 1011.18 1011.56 1011.61 1011.49 1011.57 1011.54 1011.23 1010.99 1011.09 1011.30 1011.38 1011.14 1011.48 1012.08 1012.38 1013.00 1013.42 1013.55 1013.69 1014.45 1015.46 1016.30
1004.25 1004.01 1004.58 1005.25 1005.00 1005.84 1006.45 1006.51 1006.57 1006.40 1005.56 1005.07 1005.48 1004.06 1002.88 1003.40 1005.18 1006.32 1007.30 1008.34 1009.69 1010.76 1011.34 1011.78 1012.03 1012.01 1012.06 1012.11 1011.99 1011.88 1011.73 1011.85 1012.26 1012.10 1012.44 1012.61 1013.07 1012.89 1013.49 1014.08 1014.47 1014.92 1015.53 1016.23
1003.02 1002.97 1003.46 1004.53 1004.88 1005.16 1005.49 1005.96 1006.06 1006.12 1006.02 1005.61 1003.86 1003.04 1003.52 1004.15 1005.27 1006.32 1007.26 1008.42 1009.49 1010.53 1011.36 1011.89 1012.22 1012.44 1012.66 1012.76 1012.74 1012.59 1012.62 1012.70 1012.79 1013.14 1013.32 1013.34 1013.41 1013.77 1014.37 1014.64 1014.90 1015.66 1016.14 1016.57
1002.90 1003.12 1004.08 1005.13 1005.19 1005.18 1005.35 1005.25 1005.90 1006.10 1005.31 1003.65 1001.46 1001.35 1001.09 1003.18 1004.14 1005.59 1006.66 1007.83 1008.95 1010.43 1011.28 1011.88 1012.37 1012.71 1012.97 1013.22 1013.25 1013.16 1013.19 1013.39 1013.52 1013.40 1013.56 1013.94 1014.21 1014.57 1014.75 1015.28 1015.56 1016.27 1016.73 1017.16
1003.44 1003.52 1004.43 1005.35 1004.52 1003.64 1005.08 1004.71 1004.58 1004.22 1003.92 1002.49 1000.84 999.95 1000.12 1001.33 1002.94 1004.28 1005.81 1007.13 1008.39 1009.90 1011.40 1012.15 1012.63 1013.04 1013.27 1013.51 1013.66 1013.69 1013.81 1013.93 1014.06 1014.25 1014.28 1014.47 1014.83 1015.19 1015.61 1016.02 1016.44 1016.76 1017.20 1017.71
1002.84 1002.91 1002.88 1003.67 1003.22 1003.33 1003.39 1003.47 1003.42 1002.84 1002.73 1002.43 1001.59 1000.56 1000.61 1001.06 1002.43 1003.66 1005.13 1006.65 1008.06 1009.24 1011.09 1012.30 1013.00 1013.33 1013.42 1013.66 1013.78 1014.12 1014.28 1014.49 1014.64 1014.72 1015.08 1015.37 1015.52 1015.77 1016.08 1016.54 1017.08 1017.50 1018.04 1018.39
1003.04 1002.73 1002.41 1002.34 1003.53 1003.58 1002.87 1002.52 1002.34 1002.32 1001.94 1001.61 1000.99 1000.09 1000.85 1001.44 1002.46 1003.60 1004.82 1006.44 1007.75 1009.12 1011.00 1012.20 1013.09 1013.52 1013.63 1013.82 1013.96 1014.35 1014.66 1014.93 1015.09 1015.15 1015.39 1015.95 1016.10 1016.21 1016.77 1017.12 1017.41 1017.83 1018.21 1018.65
1003.56 1002.68 1001.73 1000.07 1000.51 1000.81 1001.58 1001.21 1001.52 1001.49 1001.02 1000.73 999.92 999.99 1001.00 1001.60 1002.32 1003.38 1004.66 1006.08 1007.39 1008.84 1010.36 1011.78 1012.77 1013.32 1013.72 1013.96 1014.32 1014.57 1014.99 1015.21 1015.46 1015.69 1015.76 1016.26 1016.62 1016.96 1017.23 1017.68 1017.92 1018.38 1018.86 1019.26
1004.46 1003.34 1002.13 1000.76 1000.01 1000.06 999.92 1000.01 1000.17 1000.28 999.71 999.63 998.89 998.79 999.20 1000.78 1001.79 1002.75 1004.14 1005.61 1006.85 1008.18 1009.84 1011.17 1012.28 1013.02 1013.60 1013.99 1014.45 1014.90 1015.21 1015.33 1015.61 1015.90 1016.33 1016.74 1017.06 1017.37 1017.67 1018.26 1018.47 1018.83 1019.22 1019.87
1005.12 1003.76 1002.52 1000.81 1000.38 1000.38 999.83 999.29 999.24 999.21 999.41 999.35 998.78 998.47 998.98 999.91 1001.34 1002.43 1003.55 1004.84 1006.06 1007.44 1009.11 1010.43 1011.58 1012.25 1013.12 1013.72 1014.34 1014.95 1015.34 1015.62 1015.80 1016.20 1016.68 1017.25 1017.60 1017.99 1018.28 1018.73 1019.47 1019.68 1019.89 1020.15
1006.50 1004.93 1003.57 1001.13 1000.15 1000.49 999.61 997.79 998.23 998.19 998.52 998.43 998.18 997.70 998.70 999.42 1000.38 1001.42 1002.64 1003.95 1005.16 1006.52 1007.93 1009.47 1010.50 1011.42 1012.00 1012.99 1013.92 1014.63 1015.21 1015.64 1016.11 1016.45 1016.81 1017.04 1017.30 1017.52 1018.07 1018.76 1019.29 1019.36 1019.75 1020.24
1008.10 1006.48 1004.65 1002.39 1000.61 999.82 996.73 996.50 997.12 997.29 997.17 997.54 997.50 997.63 998.22 998.93 999.68 1000.82 1001.98 1003.05 1004.40 1005.65 1006.99 1008.34 1009.51 1010.31 1011.08 1012.00 1013.13 1014.03 1014.59 1014.99 1015.80 1016.36 1016.67 1016.99 1017.40 1017.88 1018.37 1018.85 1019.37 1019.66 1020.16 1020.76
1009.03 1008.03 1006.02 1003.16 1001.32 998.33 997.60 996.52 996.07 996.48 996.00 996.25 996.48 997.29 997.94 998.95 999.79 1000.21 1001.17 1002.45 1003.60 1004.84 1006.15 1007.45 1008.67 1009.79 1010.94 1011.92 1012.63 1013.52 1014.22 1014.89 1015.45 1016.04 1016.63 1017.24 1017.86 1018.41 1018.97 1019.47 1019.76 1020.11 1020.48 1020.89
1007.90 1008.13 1007.35 1004.55 1001.49 998.46 996.41 996.02 996.03 996.51 995.32 994.64 995.40 996.20 997.43 998.65 998.95 998.88 1000.24 1001.71 1002.99 1004.32 1005.57 1006.83 1008.07 1009.41 1010.89 1011.58 1012.51 1013.31 1014.06 1014.72 1015.28 1015.92 1016.59 1017.28 1017.89 1018.53 1019.12 1019.63 1020.07 1020.51 1020.99 1021.46
1005.70 1006.32 1005.93 1004.73 1001.79 997.79 996.15 995.68 996.58 996.17 994.37 993.18 993.89 994.92 996.33 997.25 996.83 997.77 999.56 1001.15 1002.36 1003.69 1005.06 1006.43 1007.68 1008.96 1010.32 1011.32 1012.25 1012.93 1013.76 1014.43 1015.08 1015.87 1016.70 1017.45 1018.17 1018.82 1019.49 1020.08 1020.56 1020.96 1021.50 1022.05
1002.72 1003.69 1003.84 1003.33 1000.60 997.55 996.65 996.69 995.69 994.80 994.45 994.03 993.80 994.10 995.14 996.64 997.76 997.93 999.12 1000.67 1001.92 1003.22 1004.72 1006.10 1007.36 1008.69 1009.86 1010.96 1011.90 1012.56 1013.36 1014.11 1015.15 1016.07 1016.78 1017.44 1018.04 1018.56 1019.20 1019.78 1020.38 1020.84 1021.44 1021.95
1000.35 1000.40 1000.05 999.32 997.36 996.09 996.07 995.71 995.48 995.25 994.97 994.77 994.58 994.63 995.44 996.95 997.96 998.51 999.49 1000.63 1001.79 1003.06 1004.45 1005.86 1007.04 1008.25 1009.44 1010.63 1011.52 1012.21 1013.14 1013.99 1015.12 1016.01 1016.73 1017.50 1018.31 1019.13 1019.69 1020.25 1020.75 1021.21 1021.65 1021.91
997.57 998.20 998.57 998.03 996.06 995.74 995.64 995.77 995.65 995.69 995.60 995.42 995.21 995.49 995.88 996.90 998.08 998.79 999.82 1000.86 1001.97 1003.16 1004.32 1005.64 1006.84 1007.92 1009.01 1010.30 1011.19 1011.85 1012.83 1013.81 1014.86 1015.77 1016.65 1017.43 1018.13 1018.82 1019.40 1019.90 1020.51 1021.03 1021.46 1021.93
996.10 996.70 996.20 995.80 996.08 995.00 994.51 995.46 995.78 995.86 996.09 995.99 995.98 996.12 996.42 997.08 998.09 998.87 999.88 1000.89 1001.92 1003.03 1004.24 1005.32 1006.42 1007.55 1008.73 1009.94 1010.80 1011.42 1012.44 1013.55 1014.54 1015.40 1016.24 1017.14 1017.97 1018.73 1019.35 1020.03 1020.64 1021.17 1021.60 1021.90
995.71 995.44 995.22 994.25 994.22 994.45 994.23 994.24 995.38 995.69 995.74 996.00 996.22 996.54 996.97 997.32 997.95 998.93 999.84 1000.77 1001.70 1002.85 1004.07 1005.23 1006.12 1007.12 1008.22 1009.54 1010.45 1011.09 1012.11 1013.17 1013.99 1014.75 1015.61 1016.49 1017.28 1018.14 1018.81 1019.62 1020.66 1021.86 1022.08 1022.20
Thickness
5690 5680 5682 5696 5702 5702 5698 5690 5688 5699 5704 5686 5687 5696 5704 5709 5701 5689 5683 5676 5665 5651 5643 5635 5621 5613 5607 5603 5605 5613 5622 5633 5641 5640 5639 5643 5644 5651 5651 5653 5658 5659 5660 5656
5683 5674 5697 5707 5700 5692 5686 5682 5686 5698 5697 5683 5687 5695 5705 5705 5699 5688 5678 5667 5655 5643 5632 5617 5611 5607 5605 5605 5607 5611 5622 5630 5639 5635 5637 5641 5645 5644 5643 5644 5646 5651 5652 5654
5680 5696 5697 5695 5686 5678 5684 5679 5683 5684 5689 5687 5684 5691 5705 5700 5689 5677 5672 5664 5654 5632 5617 5612 5606 5602 5600 5602 5609 5614 5623 5631 5635 5631 5630 5631 5634 5633 5634 5635 5639 5643 5645 5645
5685 5698 5688 5681 5682 5684 5673 5695 5684 5674 5666 5665 5682 5670 5702 5696 5679 5671 5670 5663 5648 5625 5617 5613 5606 5601 5599 5601 5607 5613 5621 5626 5625 5626 5624 5627 5627 5624 5624 5628 5633 5635 5637 5637
5687 5685 5683 5675 5682 5689 5676 5680 5674 5669 5664 5668 5674 5660 5702 5699 5680 5677 5671 5657 5644 5627 5617 5611 5606 5603 5600 5604 5607 5612 5616 5618 5621 5621 5621 5621 5618 5616 5615 5619 5624 5629 5628 5627
5686 5691 5687 5685 5685 5687 5683 5668 5666 5665 5661 5654 5687 5672 5701 5691 5688 5682 5667 5658 5641 5627 5619 5611 5607 5606 5602 5604 5608 5610 5611 5614 5617 5618 5621 5616 5609 5608 5610 5613 5619 5620 5619 5618
5672 5676 5679 5683 5668 5669 5667 5662 5648 5650 5643 5662 5677 5667 5691 5692 5684 5680 5668 5658 5642 5630 5619 5611 5607 5607 5606 5604 5607 5611 5611 5609 5609 5615 5617 5613 5611 5607 5607 5609 5615 5616 5615 5614
5654 5658 5677 5684 5683 5668 5663 5667 5647 5615 5653 5662 5657 5656 5688 5699 5682 5673 5666 5657 5642 5627 5619 5612 5606 5606 5606 5604 5605 5605 5608 5607 5602 5608 5609 5608 5604 5607 5605 5604 5605 5609 5612 5613
5665 5669 5687 5684 5683 5682 5669 5656 5674 5655 5657 5642 5670 5683 5684 5682 5673 5667 5661 5652 5642 5632 5621 5614 5609 5605 5602 5601 5600 5603 5603 5603 5604 5598 5599 5598 5597 5597 5596 5597 5599 5599 5604 5607
5669 5657 5665 5660 5670 5672 5668 5678 5650 5647 5627 5647 5693 5690 5697 5674 5677 5668 5662 5654 5647 5633 5625 5618 5611 5607 5603 5600 5599 5600 5600 5598 5597 5600 5601 5596 5592 5591 5592 5593 5595 5593 5594 5596
5657 5651 5638 5641 5650 5669 5654 5658 5663 5670 5666 5666 5681 5699 5714 5699 5688 5678 5668 5661 5651 5639 5623 5616 5611 5605 5603 5601 5599 5598 5596 5597 5596 5594 5596 5596 5594 5592 5590 5589 5588 5588 5588 5589
5653 5650 5637 5638 5665 5675 5673 5666 5669 5662 5659 5666 5674 5686 5706 5707 5695 5686 5673 5662 5653 5645 5628 5617 5610 5604 5603 5601 5601 5597 5596 5593 5593 5594 5591 5590 5590 5589 5588 5586 5585 5584 5583 5583
5636 5627 5626 5633 5636 5647 5653 5672 5678 5679 5678 5664 5666 5688 5702 5699 5690 5683 5673 5661 5653 5644 5627 5618 5610 5605 5603 5601 5601 5598 5595 5592 5592 5592 5591 5588 5588 5588 5584 5583 5584 5582 5582 5581
5617 5623 5631 5646 5659 5667 5650 5669 5675 5674 5665 5669 5681 5687 5681 5685 5682 5679 5671 5663 5654 5644 5632 5620 5612 5609 5604 5602 5598 5597 5593 5592 5591 5589 5589 5585 5584 5582 5581 5579 5579 5578 5576 5575
5594 5596 5625 5646 5663 5661 5666 5668 5670 5665 5686 5675 5692 5697 5702 5689 5685 5682 5673 5664 5656 5648 5634 5623 5615 5610 5606 5603 5599 5594 5591 5592 5590 5588 5587 5585 5582 5580 5581 5576 5575 5576 5574 5569
5583 5592 5615 5627 5647 5639 5649 5667 5671 5675 5678 5681 5690 5693 5708 5703 5693 5682 5675 5666 5659 5651 5638 5628 5619 5616 5609 5604 5600 5595 5592 5590 5589 5586 5583 5578 5576 5574 5574 5572 5565 5565 5567 5567
5557 5580 5591 5608 5638 5627 5621 5662 5666 5678 5681 5687 5679 5698 5706 5698 5692 5686 5678 5671 5664 5656 5647 5634 5627 5622 5618 5609 5603 5597 5593 5590 5586 5583 5581 5581 5581 5581 5577 5571 5567 5568 5566 5562
5532 5550 5573 5595 5620 5587 5660 5684 5680 5679 5689 5691 5695 5701 5703 5701 5700 5693 5687 5677 5668 5661 5652 5642 5634 5629 5625 5618 5609 5602 5598 5596 5589 5585 5583 5580 5577 5574 5570 5567 5563 5562 5559 5555
5506 5526 5546 5573 5588 5635 5634 5659 5672 5671 5685 5700 5700 5698 5701 5698 5693 5692 5692 5683 5674 5667 5658 5649 5640 5632 5623 5616 5612 5604 5599 5594 5590 5586 5581 5577 5572 5568 5564 5561 5561 5558 5555 5552
5514 5509 5523 5548 5578 5595 5649 5667 5676 5676 5664 5710 5708 5702 5698 5693 5681 5692 5696 5687 5678 5670 5662 5653 5644 5633 5621 5617 5610 5602 5597 5592 5588 5583 5578 5573 5569 5565 5561 5558 5554 5551 5546 5541
5508 5497 5508 5532 5558 5615 5652 5663 5662 5642 5682 5723 5723 5714 5705 5696 5709 5713 5702 5689 5682 5674 5664 5655 5644 5634 5624 5617 5609 5603 5596 5591 5587 5581 5575 5570 5565 5560 5554 5549 5545 5541 5536 5531
5521 5515 5515 5532 5563 5586 5632 5638 5651 5683 5695 5709 5719 5721 5715 5705 5705 5708 5701 5690 5682 5673 5664 5655 5645 5634 5626 5618 5610 5603 5596 5592 5584 5578 5572 5566 5561 5557 5552 5547 5541 5538 5533 5529
5519 5534 5553 5567 5590 5630 5635 5649 5666 5675 5689 5694 5704 5712 5709 5700 5696 5698 5693 5687 5680 5672 5664 5655 5646 5637 5628 5618 5611 5604 5597 5591 5582 5575 5569 5562 5556 5549 5544 5540 5537 5534 5530 5527
5550 5557 5551 5569 5603 5617 5629 5643 5655 5665 5677 5684 5695 5698 5702 5696 5692 5691 5688 5683 5677 5669 5662 5654 5645 5637 5628 5618 5610 5606 5598 5590 5581 5574 5567 5560 5553 5547 5542 5539 5534 5529 5525 5521
5554 5558 5567 5579 5588 5617 5636 5636 5647 5655 5664 5674 5682 5687 5691 5693 5688 5687 5684 5680 5675 5669 5661 5653 5645 5637 5628 5618 5611 5607 5598 5590 5582 5575 5568 5560 5552 5545 5540 5534 5528 5524 5519 5515
5543 5552 5554 5575 5600 5606 5625 5647 5644 5649 5658 5667 5672 5676 5682 5687 5685 5684 5681 5678 5674 5667 5659 5651 5646 5638 5629 5618 5611 5606 5598 5590 5584 5578 5571 5562 5555 5547 5541 5534 5524 5512 5510 5506